Tracking 19181 objects as of 17-Jun-2018
HD Live streaming from Space Station
objects crossing your sky now

FENGYUN 1C DEB

Track FENGYUN 1C DEB now!
10-day predictions


NORAD ID: 36994
Int'l Code: 1999-025ECA
Perigee: 852.0 km
Apogee: 1,020.7 km
Inclination: 98.7 °
Period: 103.6 minutes
Semi major axis: 7307 km
RCS: 0.0026 m2 (small)
Launch date: May 10, 1999
Source: People's Republic of China (PRC)
Launch site: Taiyaun Space Center, China (TSC)

Note: This is SATELLITE DEBRIS
aabbcc
Your satellite tracking list
Your tracking list is empty




NASA's NSSDC Master Catalog

Two Line Element Set (TLE):
1 36994U 99025ECA 18166.28125383 -.00000010  00000-0  24194-4 0  9996
2 36994  98.7118 281.6376 0115444 251.4816 107.3771 13.89843872430956
Source of the keplerian elements: AFSPC